This is the latest recevied weather packets stored in our database for station/object AA8FM-13. If no packets are shown the sender has not sent any weather packets the latest 10 day(s).
| Time | Temp. | Humidity | Pressure | Rain* | Wind** | Luminosity | Snow |
|---|---|---|---|---|---|---|---|
| 1778210029 | 7.78° C | 66% | 1011.7 hPa | 0 mm | - | 0 W/m² | - |
| 1778209725 | 8.33° C | 66% | 1011.4 hPa | 0 mm | - | 0 W/m² | - |
| 1778209422 | 8.33° C | 65% | 1011.4 hPa | 0 mm | - | 0 W/m² | - |
| 1778209119 | 8.89° C | 65% | 1011.4 hPa | 0 mm | - | 0 W/m² | - |
| 1778208816 | 9.44° C | 63% | 1011.3 hPa | 0 mm | - | 0 W/m² | - |
| 1778208513 | 10° C | 59% | 1011.1 hPa | 0 mm | - | 0 W/m² | - |
| 1778208209 | 10° C | 59% | 1011 hPa | 0 mm | - | 0 W/m² | - |
| 1778207906 | 10.56° C | 55% | 1011.1 hPa | 0 mm | - | 0 W/m² | - |
| 1778207603 | 10.56° C | 55% | 1011.1 hPa | 0 mm | - | 0 W/m² | - |
| 1778207300 | 10.56° C | 57% | 1011.2 hPa | 0 mm | - | 0 W/m² | - |
| 1778206995 | 10° C | 54% | 1010.9 hPa | 0 mm | - | 0 W/m² | - |
| 1778206693 | 10.56° C | 55% | 1011.1 hPa | 0 mm | - | 0 W/m² | - |
| 1778206388 | 10.56° C | 53% | 1011 hPa | 0 mm | - | 0 W/m² | - |
| 1778206084 | 10.56° C | 53% | 1010.7 hPa | 0 mm | - | 0 W/m² | - |
| 1778205783 | 11.11° C | 53% | 1010.7 hPa | 0 mm | - | 0 W/m² | - |
| 1778205479 | 11.11° C | 51% | 1010.9 hPa | 0 mm | - | 0 W/m² | - |
| 1778205177 | 11.11° C | 50% | 1010.7 hPa | 0 mm | - | 0 W/m² | - |
| 1778204873 | 11.67° C | 49% | 1010.5 hPa | 0 mm | - | 0 W/m² | - |
| 1778204570 | 11.67° C | 49% | 1010.5 hPa | 0 mm | - | 0 W/m² | - |
| 1778204266 | 11.11° C | 49% | 1010.5 hPa | 0 mm | - | 0 W/m² | - |
| 1778203963 | 11.11° C | 49% | 1010.4 hPa | 0 mm | - | 0 W/m² | - |
| 1778203660 | 11.67° C | 47% | 1010.3 hPa | 0 mm | - | 0 W/m² | - |
| 1778203357 | 11.67° C | 48% | 1010 hPa | 0 mm | - | 0 W/m² | - |
| 1778203055 | 11.67° C | 48% | 1010 hPa | 0 mm | - | 0 W/m² | - |
| 1778202752 | 11.67° C | 47% | 1010 hPa | 0 mm | - | 0 W/m² | - |
* Rain latest hour (hover to see other rain measurements)
** Current wind speed in m/s (hover to see current wind gust speed)